STARLINK-4543 (53429 NORAD) Tracking and Keplerian Element Data

This shows tracking and keplerian element data for the satellite.

Feedback or suggestion? Click here.




ElementValue
Catalog53429
NameSTARLINK-4543
Epoch Orbit799
Epoch Day270.25001157
Epoch Year2022
RAAN10.2197
Inclination53.217
Eccentricity0.000246
Argument of Perigee23.6979
Mean Anonmoly156.7948
Mean Motion15.73192183
Decay Rate0.00090022
L11 53429U 22097AT 22270.25001157 .00090022 00000+0 63914-3 0 9995
L22 53429 53.2170 10.2197 0002460 23.6979 156.7948 15.73192183 7996

Live tracking and technical data element details for STARLINK-4543 (NORAD 53429). STARLINK-4543 can be tracked NOW for your location showing map with azimuth and elevation plus other details from your city location.

Track the satellite on the map from your city or location and see movement details for azimuth, elevation, latitude, longitude, range, height, and movement on the map or in text.







IsCatalogInMostPopularTable: catalog: 53429, numindb: 4
Update: records affected: 1



GetName: 53429 STARLINK-4543

Hit Count: updated at: Wed, 05 Oct 2022 09:20:10 GMT